Back to catalog

DELTA 1 DEB

AliveSSO
NORAD 15788·DEBRIS·🇺🇸 United States

Launched Mar 5, 1978 from Vandenberg Space Force Base

Loading…

Next Passes (next 24 hours)

TLE

FreshSource: Space-Track

Epoch: Sep 14, 2026, 05:18 UTC

1 15788U 78026GT  26257.22143918  .00000823  00000-0  62108-3 0  9997
2 15788  98.8852 168.0074 0118844 340.1374 173.7564 13.93673998215442

Track DELTA 1 DEB in real time with AllMySat

Download on the App Store